[[{"header":{"parameterUnit":"m.s-1","parameterCategory":1,"la1":30.2991,"la2":30.254,"lo1":-89.0895,"lo2":-89.0444,"dy":0.0017,"dx":0.0017,"nx":28,"ny":28,"refTime":"2024-04-23T03:00:00:Z","depth":0,"parameterNumber":2,"parameterNumberName":"U-component_of_WINDS"},"data":[0,0,0,0,0,0,0,0,0,0,0,0,0,0,0,0,0,0,0,0,0,0,0,0,0,0,0,0,0,0,0,0,0,0,0,0,0,0,0,0,0,0,0,0,0,0,0,0,0,0,0,0,0,0,0,0,0,0,0.3472,0.3472,0,0.3466,0.3466,0.3466,0.3461,0.3461,0.3461,0.3461,0.3454,0.3454,0.3454,0,0,0,0,0,0,0,0,0,0,0,0,0,0.3478,0.3478,0.3472,0.3472,0.3472,0.3466,0.3466,0.3466,0.3461,0.3461,0.3461,0.3461,0.3454,0.3454,0.3454,0,0,0,0,0,0,0,0,0,0,0,0,0,0.3474,0.3478,0.3472,0.3469,0.3469,0.3466,0.3466,0.3466,0.3461,0.3461,0.3461,0.3461,0.3454,0.3454,0.3454,0.3454,0,0,0.3453,0.3453,0,0,0,0,0,0,0,0,0.3474,0.3474,0.3469,0.3469,0.3469,0.3464,0.3465,0.3462,0.3461,0.3464,0.3461,0.3461,0.3457,0.3457,0.3456,0.3453,0.3453,0.3453,0.3453,0.3453,0.3453,0,0,0,0,0,0,0,0.3474,0.3474,0.347,0.3469,0.3469,0.3467,0.3466,0.3465,0.3461,0.3464,0.3463,0.3463,0.3457,0.3456,0.3456,0.3453,0.3453,0.3453,0.3452,0.3452,0.3448,0.3448,0,0,0,0,0,0,0.3475,0.3474,0.347,0.3469,0.3471,0.3467,0.3466,0.3466,0.3461,0.346,0.3463,0.3462,0.3456,0.3456,0.3455,0.3454,0.3453,0.3452,0.3452,0.3448,0.3448,0.3448,0,0,0,0,0,0,0.3475,0.3475,0.347,0.3472,0.3471,0.3467,0.3466,0.3466,0.3465,0.346,0.346,0.3462,0.3456,0.3456,0.3454,0.3454,0.3452,0.3452,0.3448,0.3448,0.3448,0.3452,0,0,0,0,0,0,0.3476,0.3475,0.3476,0.3472,0.3471,0.3469,0.3466,0.3466,0.3464,0.3464,0.346,0.3459,0.3456,0.3454,0.3453,0.3453,0.3452,0.3448,0.3448,0.3448,0.3452,0.3452,0.3452,0,0,0,0,0,0.3476,0.3477,0.3476,0.3475,0.3471,0.3469,0.3469,0.3466,0.3464,0.3464,0.3461,0.3459,0.3454,0.3454,0.3453,0.3453,0.3448,0.3448,0.3448,0.3452,0.3452,0.3452,0,0,0,0,0,0,0.3481,0.3476,0.3475,0.3475,0.3472,0.3468,0.3469,0.3466,0.3464,0.3464,0.346,0.3459,0.3457,0.3455,0.3455,0.3452,0.345,0.345,0.3453,0.3454,0.3454,0.3454,0.3452,0,0,0,0,0,0.3482,0.3481,0.3477,0.3478,0.3476,0.3473,0.3472,0.3469,0.3466,0.3465,0.3462,0.3459,0.3457,0.3455,0.3453,0.3451,0.345,0.3451,0.3451,0.3451,0.3451,0.3449,0.3449,0.3448,0.3448,0.3448,0,0,0.3485,0.3482,0.3482,0.3478,0.3476,0.3475,0.3472,0.3471,0.3469,0.3465,0.3463,0.346,0.3457,0.3455,0.3454,0.3453,0.3451,0.3451,0.3452,0.3451,0.3449,0.3449,0.3449,0.3448,0.3448,0.3448,0,0,0.3488,0.3486,0.3486,0.3483,0.348,0.3477,0.3477,0.3473,0.3471,0.3469,0.3466,0.3463,0.346,0.3457,0.3455,0.3455,0.3453,0.3454,0.3456,0.3454,0.3454,0.3454,0.3453,0.3453,0.3454,0.3454,0.3454,0,0.3491,0.3489,0.3486,0.3484,0.3483,0.3479,0.3478,0.3475,0.3471,0.347,0.3469,0.3463,0.346,0.3457,0.3457,0.3456,0.3455,0.3455,0.3454,0.3454,0.3454,0.3453,0.3453,0.3455,0.3454,0.3454,0.3454,0,0.3493,0.3491,0.3491,0.3487,0.3485,0.3484,0.348,0.3478,0.3476,0.3473,0.347,0.3466,0.3462,0.3461,0.3459,0.3457,0.3457,0.3455,0.3453,0.3454,0.3453,0.3453,0.3455,0.3455,0.3455,0.3455,0,0,0.35,0.3493,0.3493,0.3491,0.3486,0.3484,0.3482,0.3479,0.3477,0.3474,0.3471,0.3467,0.3465,0.3463,0.346,0.3458,0.3458,0.3457,0.3457,0.3457,0.3454,0.3455,0.3455,0.3456,0.3456,0.3456,0.3454,0,0.3502,0.3499,0.3495,0.3493,0.349,0.3486,0.3484,0.348,0.3477,0.3474,0.3471,0.3468,0.3466,0.3464,0.3462,0.3458,0.3457,0.3458,0.3453,0.3453,0.3454,0.3455,0.3456,0.3455,0.3454,0.3454,0.3454,0,0.3504,0.3501,0.3498,0.3493,0.3492,0.349,0.3486,0.3483,0.3478,0.3476,0.3473,0.347,0.3466,0.3465,0.346,0.3461,0.3458,0.3456,0.3455,0.3455,0.3453,0.3453,0.3454,0.3454,0.3454,0.3454,0.3454,0,0.3509,0.3504,0.3501,0.3499,0.3493,0.3492,0.3489,0.3484,0.3482,0.3477,0.3475,0.3471,0.3468,0.3465,0.346,0.346,0.3455,0.3453,0.3452,0.3452,0.3451,0.3451,0.3451,0.345,0.345,0.345,0.345,0,0.3511,0.3509,0.3503,0.3501,0.3499,0.3494,0.3492,0.3488,0.3484,0.3481,0.3477,0.3474,0.3468,0.3464,0.346,0.3456,0.3455,0.3452,0.3451,0.3453,0.3453,0.3451,0.345,0.345,0.345,0.345,0.345,0,0.3516,0.3511,0.3508,0.3502,0.35,0.3499,0.3493,0.3491,0.3487,0.3483,0.3482,0.3476,0.3471,0.3466,0.3459,0.3457,0.3452,0.3451,0.3454,0.3453,0.3452,0.3452,0.345,0.3449,0.3449,0.3449,0.3449,0,0.3517,0.3516,0.3509,0.3507,0.3504,0.3501,0.3498,0.3493,0.349,0.3484,0.3482,0.3477,0.3473,0.3465,0.3459,0.3454,0.3452,0.3452,0.3451,0.3452,0.3451,0.3451,0.3451,0.3452,0.3452,0.3452,0.3452,0,0.3521,0.3518,0.3515,0.351,0.3507,0.3503,0.3498,0.3497,0.349,0.3487,0.3482,0.3479,0.3472,0.3466,0.346,0.3456,0.3453,0.3452,0.3452,0.3453,0.3454,0.3452,0.3454,0.3452,0.3452,0.3452,0.3452,0.3452,0.3523,0.3521,0.3516,0.3512,0.3508,0.3504,0.3501,0.3497,0.3492,0.3486,0.3483,0.3478,0.3472,0.3463,0.3459,0.3455,0.3454,0.3453,0.3452,0.3452,0.3452,0.3455,0.3453,0.3453,0.3453,0.3453,0.3453,0,0.3525,0.3522,0.3518,0.3512,0.3508,0.3505,0.35,0.3497,0.3492,0.3487,0.3483,0.3476,0.347,0.3464,0.3458,0.3455,0.3453,0.3454,0.3454,0.3453,0.3454,0.3455,0.3455,0.3455,0.3455,0.3455,0.3455,0.3455,0.3526,0.3522,0.3519,0.3513,0.3509,0.3504,0.3501,0.3496,0.3492,0.3485,0.348,0.3476,0.347,0.3463,0.3458,0.3456,0.3454,0.3454,0.3452,0.3453,0.3453,0.3453,0.3453,0.3454,0.3454,0.3451,0.3451,0.3451]},{"header":{"parameterUnit":"m.s-1","parameterCategory":1,"la1":30.2991,"la2":30.254,"lo1":-89.0895,"lo2":-89.0444,"dy":0.0017,"dx":0.0017,"nx":28,"ny":28,"refTime":"2024-04-23T03:00:00:Z","depth":0,"parameterNumber":3,"parameterNumberName":"V-component_of_WINDS"},"data":[0,0,0,0,0,0,0,0,0,0,0,0,0,0,0,0,0,0,0,0,0,0,0,0,0,0,0,0,0,0,0,0,0,0,0,0,0,0,0,0,0,0,0,0,0,0,0,0,0,0,0,0,0,0,0,0,0,0,4.1377,4.1377,0,4.1451,4.1452,4.1453,4.1409,4.1407,4.1405,4.1403,4.1475,4.1478,4.1482,0,0,0,0,0,0,0,0,0,0,0,0,0,4.1189,4.1193,4.1376,4.1377,4.1378,4.1451,4.1452,4.1453,4.1409,4.1407,4.1404,4.1402,4.1473,4.1478,4.1483,0,0,0,0,0,0,0,0,0,0,0,0,0,4.1268,4.1194,4.1376,4.1365,4.1365,4.1451,4.1452,4.1453,4.141,4.1407,4.1403,4.14,4.1472,4.1477,4.1483,4.1583,0,0,4.1501,4.1503,0,0,0,0,0,0,0,0,4.1263,4.1275,4.1366,4.1366,4.1366,4.1418,4.1412,4.1497,4.1411,4.1393,4.1403,4.1399,4.1458,4.1465,4.1485,4.1586,4.1589,4.1501,4.1505,4.1508,4.1509,0,0,0,0,0,0,0,4.1258,4.1271,4.1406,4.1367,4.1367,4.1354,4.1362,4.1428,4.1442,4.1394,4.1391,4.1401,4.1457,4.148,4.1487,4.159,4.1501,4.1506,4.151,4.1512,4.1772,4.1775,0,0,0,0,0,0,4.1254,4.1267,4.1403,4.1408,4.1306,4.136,4.1369,4.1404,4.1441,4.1444,4.1403,4.1398,4.1472,4.148,4.1489,4.1605,4.1507,4.1513,4.1516,4.1768,4.1772,4.1776,0,0,0,0,0,0,4.125,4.1267,4.14,4.1337,4.1353,4.1367,4.1407,4.1407,4.143,4.1448,4.145,4.1424,4.1469,4.1481,4.1559,4.1607,4.1516,4.1521,4.1764,4.177,4.1774,4.1839,0,0,0,0,0,0,4.1245,4.1266,4.1305,4.1338,4.1356,4.1471,4.141,4.1411,4.1441,4.1435,4.1469,4.1471,4.1468,4.1551,4.1565,4.1613,4.1525,4.176,4.1767,4.1773,4.1833,4.1846,4.1857,0,0,0,0,0,4.1239,4.132,4.1308,4.1324,4.1407,4.1474,4.1484,4.1481,4.1445,4.1483,4.1495,4.147,4.16,4.1559,4.1575,4.1626,4.1757,4.1765,4.1772,4.1827,4.1844,4.1857,0,0,0,0,0,0,4.1292,4.1325,4.1311,4.1406,4.1438,4.1467,4.1515,4.1498,4.154,4.1532,4.1524,4.1532,4.1613,4.1627,4.1581,4.1722,4.1672,4.1684,4.1709,4.1725,4.1736,4.173,4.153,0,0,0,0,0,4.1315,4.1369,4.1394,4.1476,4.1492,4.1501,4.1531,4.1525,4.1557,4.157,4.1587,4.1617,4.1664,4.1696,4.174,4.1836,4.184,4.1878,4.189,4.19,4.1909,4.1956,4.1972,4.1801,4.1801,4.1801,0,0,4.1363,4.1387,4.1422,4.1487,4.1511,4.1564,4.1513,4.1573,4.1611,4.1578,4.1652,4.1666,4.1699,4.1785,4.1824,4.18,4.1957,4.191,4.1918,4.1921,4.1966,4.1982,4.1996,4.1806,4.1805,4.1805,0,0,4.1476,4.1502,4.1571,4.1596,4.1633,4.1638,4.1655,4.1686,4.1694,4.1769,4.1744,4.1789,4.1872,4.1896,4.1919,4.2039,4.2016,4.2054,4.2116,4.2163,4.2176,4.2188,4.2228,4.2243,4.2063,4.2063,4.2064,0,4.153,4.1612,4.1608,4.1669,4.1697,4.1671,4.1739,4.1763,4.1812,4.1831,4.1803,4.1905,4.1925,4.2015,4.2044,4.2065,4.2081,4.2049,4.2175,4.2187,4.2198,4.2235,4.2251,4.2067,4.2067,4.2067,4.2066,0,4.1675,4.1731,4.1783,4.1831,4.1865,4.193,4.1933,4.1967,4.1958,4.1965,4.204,4.2064,4.2111,4.2133,4.2125,4.222,4.2204,4.2176,4.2126,4.2218,4.2253,4.2268,4.2073,4.2072,4.2071,4.207,0,0,4.1824,4.1869,4.1887,4.1907,4.1946,4.1988,4.205,4.2098,4.2126,4.216,4.221,4.2279,4.2253,4.2279,4.2273,4.2315,4.2404,4.2281,4.2282,4.23,4.2507,4.2525,4.2542,4.239,4.2393,4.2396,4.2503,0,4.1937,4.2046,4.2044,4.2144,4.2194,4.2169,4.2222,4.225,4.2258,4.23,4.2308,4.2357,4.2321,4.2336,4.2376,4.2385,4.2445,4.2378,4.2433,4.2435,4.2423,4.2561,4.2582,4.2682,4.2517,4.2519,4.2521,0,4.2084,4.2124,4.2229,4.2257,4.2278,4.2327,4.2368,4.241,4.244,4.2442,4.2471,4.2458,4.2517,4.2467,4.2547,4.2501,4.2524,4.2532,4.2535,4.2538,4.2482,4.2565,4.2714,4.2728,4.2543,4.2542,4.254,0,4.2178,4.2258,4.233,4.2349,4.2385,4.2418,4.2434,4.2461,4.2489,4.2525,4.2542,4.2585,4.2608,4.264,4.2637,4.2602,4.2717,4.2668,4.2718,4.2718,4.2742,4.274,4.2894,4.2761,4.2761,4.2761,4.2761,0,4.2303,4.2368,4.2372,4.2417,4.2487,4.2483,4.2552,4.2565,4.2589,4.2633,4.2614,4.2656,4.2651,4.2692,4.2691,4.2755,4.2766,4.2768,4.2766,4.2768,4.2767,4.2781,4.2773,4.2765,4.2764,4.2763,4.2763,0,4.2419,4.2425,4.2502,4.2529,4.2537,4.2588,4.261,4.265,4.2657,4.2713,4.2726,4.2735,4.2782,4.2783,4.2838,4.2836,4.2914,4.2906,4.2904,4.2901,4.295,4.2945,4.3116,4.3137,4.2994,4.2995,4.2997,0,4.2497,4.2546,4.2578,4.2607,4.2625,4.2672,4.27,4.2697,4.2727,4.2763,4.2799,4.2845,4.2881,4.2957,4.2967,4.3007,4.2998,4.3056,4.3004,4.3003,4.2995,4.2991,4.2994,4.3065,4.3066,4.3068,4.3069,0,4.2634,4.2634,4.2676,4.2719,4.2753,4.2787,4.2817,4.2841,4.2841,4.2875,4.2924,4.2952,4.3007,4.3051,4.309,4.3104,4.3085,4.3085,4.3098,4.3099,4.3095,4.3095,4.2928,4.3081,4.3079,4.3079,4.3078,4.3077,4.2731,4.2772,4.2801,4.2847,4.287,4.2899,4.2938,4.2948,4.2989,4.3034,4.303,4.3083,4.3108,4.3159,4.3176,4.3216,4.3196,4.3216,4.322,4.3224,4.3228,4.3091,4.3223,4.3223,4.3223,4.3222,4.3222,0,4.2864,4.2881,4.2924,4.2967,4.3003,4.2985,4.3017,4.3048,4.3095,4.3121,4.3157,4.3211,4.3253,4.3267,4.3307,4.3336,4.3328,4.3346,4.3343,4.3346,4.3246,4.3229,4.3352,4.3352,4.3352,4.3352,4.3352,4.3352,4.2937,4.3005,4.3008,4.3086,4.3101,4.3154,4.3174,4.3199,4.3219,4.3281,4.3316,4.3325,4.3345,4.3387,4.3424,4.3426,4.3441,4.3462,4.3461,4.3366,4.3353,4.3341,4.3324,4.3466,4.3466,4.3557,4.3558,4.3558]}]]